www.pogodaiklimat.ru

Погода и климат >> Архив погоды >> Индонезия >> Gunungsitoli


ПОГОДА в Gunungsitoli

  • Прогноз погоды в Gunungsitoli
  • Монитор погоды в Gunungsitoli
  • Климат города

АРХИВ ПОГОДЫ в Gunungsitoli

Время (UTC), дата Ветер
(напр.,м/с)
 
Видим.   Явления Облачность Т
(С)
Тd
(С)
f
(%)
Тe
(С)
Тes
(С)
Комфортность P
(гПа)
Po
(гПа)
Тmin
(С)
Tmax
(С)
R
(мм)
R24
(мм)
S
(см)
03 6.11 В 3 10 км 8/4 480 м
[Cu Sc Ac As Ci fib]
+28.8 +22.9 70 +38 +43 очень
душно
1011.5 1010.7
06 6.11 С 4 10 км 8/4 450 м
[Cb cap Ac As Ci fib]
+28.8 +24.4 77 +40 +46 очень
душно
1009.5 1008.6
09 6.11 ЮЗ 3 10 км 5/3 480 м
[Cu med, cong Ac As Ci fib]
+29.5 +27.5 89 +48 +51 опасность
перегрева
1006.7 1005.7
12 6.11 З 2 6000 м 8/4 500 м
[Sc Ac As Ci fib]
+27.1 +26.7 98 +42 +42 опасность
перегрева
1008.5 1007.5 +30.1
15 6.11 штиль 0 6000 м в посл. час гроза 8/4 450 м
[Cb cap Ac As Ci fib]
+25.7 +25.2 97 +37 +37 очень
душно
1011.3 1010.3
18 6.11 штиль 0 5000 м 8/5 450 м
[Cb cap Ac As Ci fib]
+25.2 +24.8 98 +36 +36 очень
душно
1010.3 1009.4
21 6.11 штиль 0 4000 м слабый дождь 10/8 450 м
[Cb cap As op]
+25.0 +24.6 98 +35 +35 очень
душно
1008.6 1007.7 4
00 7.11 штиль 0 5000 м слабый дождь 10/6 300 м
[Cb cap Ac As]
+24.8 +24.4 98 +35 +35 очень
душно
1009.8 1008.8 +23.8 6
03 7.11 штиль 0 7000 м слабый дождь 9/6 450 м
[Cb cap Ac As Ci fib]
+27.1 +25.5 91 +40 +44 очень
душно
1012.0 1011.0 2
06 7.11 штиль 0 5000 м слабый дождь 10/6 450 м
[Cb cap Ac As]
+25.2 +23.4 90 +34 +37 очень
душно
1010.6 1009.6 40
09 7.11 штиль 0 8000 м слабый дождь 9/5 450 м
[Cb cap Ac As Ci fib]
+27.2 +25.6 91 +40 +43 очень
душно
1007.8 1006.8 1
12 7.11 штиль 0 6000 м {дождь} 8/4 450 м
[Cb cap Ac As Ci fib]
+25.6 +24.5 94 +36 +36 очень
душно
1009.2 1008.2 +27.7 0.4
15 7.11 штиль 0 6000 м в посл. час дождь 8/4 450 м
[Cb cap Ac As Ci fib]
+24.6 +24.2 98 +34 +34 очень
душно
1011.2 1010.2 0.5
18 7.11 штиль 0 5000 м в посл. час дождь 8/4 450 м
[Cb cap Ac As Ci fib]
+24.0 +23.9 99 +33 +33 очень
душно
1010.4 1009.5 0.8
21 7.11 штиль 0 5000 м 8/4 450 м
[Cb cap Ac As Ci fib]
+23.4 +23.3 99 +33 +33 очень
душно
1008.2 1007.4
00 8.11 штиль 0 6000 м 9/4 450 м
[Cb cap Ac As Ci fib]
+23.6 +23.4 99 +32 +32 очень
душно
1009.4 1008.4 +23.0 44
03 8.11 штиль 0 10 км 8/3 450 м
[Cb cap Ac As Ci fib]
+28.4 +26.1 87 +43 +50 опасность
перегрева
1010.4 1009.4
06 8.11 штиль 0 8000 м в посл. час дождь 8/4 450 м
[Cb cap Ac As Ci fib]
+28.4 +26.6 90 +44 +54 опасность
перегрева
1008.1 1007.1 0.3
09 8.11 штиль 0 7000 м 10/5 450 м
[Cb cap As op]
+26.8 +25.9 95 +40 +41 очень
душно
1006.6 1005.6 7
12 8.11 штиль 0 5000 м 10/5 450 м
[Cb cap As op]
+25.6 +24.6 94 +36 +36 очень
душно
1008.0 1007.0 +29.8 0.0
15 8.11 штиль 0 5000 м в посл. час дождь 10/6 450 м
[Cb cap Ac As]
+24.6 +24.2 98 +34 +34 очень
душно
1009.6 1008.6 6
18 8.11 штиль 0 5000 м слабый дождь 10/6 450 м
[Cb cap Ac As]
+24.4 +24.0 98 +34 +34 очень
душно
1008.6 1007.6 3
21 8.11 штиль 0 5000 м слабый дождь 10/6 450 м
[Cb cap Ac As]
+23.8 +23.6 99 +32 +32 очень
душно
1006.4 1005.4 1
00 9.11 штиль 0 5000 м слабый дождь 9/5 300 м
[Cb cap Ac As]
+23.8 +23.6 99 +32 +32 очень
душно
1008.4 1007.5 +23.6 17
03 9.11 штиль 0 5000 м слабый дождь 9/5 450 м
[Cb cap Ac As]
+24.2 +23.8 98 +33 +37 очень
душно
1009.6 1008.7 9
06 9.11 штиль 0 3000 м слабый дождь 9/4 450 м
[Cb cap Ac As]
+23.9 +23.5 98 +32 +39 очень
душно
1009.0 1008.1 29
09 9.11 штиль 0 2000 м слабый дождь 10/8 450 м
[Cb cap As op]
+25.0 +24.6 98 +35 +36 очень
душно
1008.0 1007.0 5
12 9.11 штиль 0 5000 м в посл. час дождь 10/6 450 м
[Cb cap As op]
+24.2 +23.8 98 +33 +33 очень
душно
1008.3 1007.4 +27.6 7
15 9.11 штиль 0 4000 м 10/8 450 м
[Cb cap As op]
+23.4 +23.2 99 +33 +33 очень
душно
1010.6 1009.7 2
18 9.11 штиль 0 4000 м {дождь} 9/5 450 м
[Cb cap Ac As Ci fib]
+23.4 +22.9 97 +33 +33 очень
душно
1009.2 1008.3 0.4
21 9.11 штиль 0 5000 м 9/4 450 м
[Cb cap Ac As Ci fib]
+23.2 +23.0 99 +32 +32 очень
душно
1008.0 1007.1
00 10.11 штиль 0 6000 м 8/3 500 м
[Sc Ac As Ci fib]
+22.9 +22.7 99 +31 +32 очень
душно
1009.7 1008.8 +22.6 51
03 10.11 штиль 0 9000 м 8/3 420 м
[Cu med, cong Ac As Ci fib]
+28.2 +26.4 90 +43 +51 опасность
перегрева
1010.6 1009.7
06 10.11 СВ 4 7000 м 9/5 450 м
[Cb cap Ac As Ci fib]
+29.6 +27.6 89 +48 +52 опасность
перегрева
1008.7 1007.8
09 10.11 ЮВ 3 7000 м гроза без осадков {дождь} 9/5 450 м
[Frnb Ac inh Ci fib]
+27.6 +26.5 94 +42 +44 опасность
перегрева
1007.2 1006.2 1
12 10.11 штиль 0 5000 м {гроза, дождь} 9/5 450 м
[Cb cap Ac As Ci fib]
+25.1 +24.7 98 +35 +35 очень
душно
1008.7 1007.7 +30.7 0.0
15 10.11 штиль 0 5000 м в посл. час дождь 10/5 450 м
[Cb cap Ac As]
+24.7 +24.2 97 +34 +34 очень
душно
1011.4 1010.4 0.0
18 10.11 штиль 0 6000 м {дождь} 9/4 450 м
[Cb cap Ac As Ci fib]
+23.8 +23.6 99 +32 +32 очень
душно
1010.8 1009.8 0.5
21 10.11 штиль 0 6000 м {дождь} 9/4 480 м
[Cu Sc Ac As Ci fib]
+23.7 +23.6 99 +32 +32 очень
душно
1008.9 1008.9 0.2
00 11.11 штиль 0 7000 м {дождь} 8/4 480 м
[Cu Sc Ac As Ci fib]
+23.8 +23.4 98 +32 +32 очень
душно
1009.7 1008.7 +22.9 2
03 11.11 штиль 0 10 км 6/1 480 м
[Cu med, cong Ac As Ci fib]
+28.4 +24.9 81 +41 +51 опасность
перегрева
1011.3 1010.3
06 11.11 штиль 0 50 км ?/? +29.6 +25.4 78 +43 +43 опасность
перегрева
1009.3 1008.3
09 11.11 штиль 0 4000 м гроза, ливневой дождь 10/6 450 м
[Cb cap Ac As Ci fib]
+25.1 +24.7 98 +35 +37 очень
душно
1008.4 1007.4 18
12 11.11 штиль 0 5000 м в посл. час дождь {гроза} 10/6 450 м
[Cb cap Ac As]
+25.0 +24.3 96 +35 +35 очень
душно
1010.1 1009.1 +30.8 6
15 11.11 штиль 0 5000 м 9/6 450 м
[Cb cap Ac As Ci fib]
+24.1 +23.6 97 +33 +33 очень
душно
1011.9 1010.9
18 11.11 штиль 0 5000 м 8/4 450 м
[Cb cap Ac As Ci fib]
+23.4 +22.9 97 +33 +33 очень
душно
1010.7 1009.7
21 11.11 штиль 0 5000 м 8/4 450 м
[Cb cap Ac As Ci fib]
+23.3 +23.1 99 +33 +33 очень
душно
1009.5 1008.5
00 12.11 З 4 4000 м пыль {дождь} 10/5 300 м
[Cb cap As op]
+25.2 +23.9 93 +35 +35 очень
душно
1010.8 1009.8 +23.3 24
03 12.11 З 3 7000 м {дождь} 9/5 450 м
[Cb cap As op Ci fib]
+28.1 +24.2 79 +39 +42 очень
душно
1012.1 1011.1 2
06 12.11 В 5 6000 м в посл. час дождь {гроза} 10/6 450 м
[Cb cap As op]
+28.4 +24.6 80 +40 +41 очень
душно
1009.8 1008.9 0.0
09 12.11 В 3 5000 м слабый ливневой дождь, в посл. час гроза 10/8 450 м
[Cb cap As op]
+23.7 +22.9 95 +31 +32 очень
душно
1008.4 1007.4 47
12 12.11 штиль 0 5000 м в посл. час дождь {гроза} 8/4 500 м
[Sc Ac As Ci fib]
+23.8 +23.3 97 +32 +32 очень
душно
1009.1 1008.1 +31.3 3
15 12.11 штиль 0 5000 м 9/6 450 м
[Cb cap Ac As Ci fib]
+23.6 +23.1 97 +31 +31 очень
душно
1011.3 1010.3
18 12.11 штиль 0 5000 м 8/5 450 м
[Cb cap Ac As Ci fib]
+23.3 +23.1 99 +33 +33 очень
душно
1010.1 1009.1
21 12.11 штиль 0 5000 м 8/5 450 м
[Cb cap Ac As Ci fib]
+23.4 +23.0 98 +33 +33 очень
душно
1008.5 1007.5
00 13.11 ЮЗ 3 5000 м слабый дождь 10/5 300 м
[Cb cap As op]
+23.7 +23.2 97 +32 +32 очень
душно
1009.9 1008.9 +23.3 0.2

 

Местоположение метеостанции Gunungsitoli (Индонезия): широта 1.50 долгота 97.63 высота над уровнем моря 6 м.

В архиве по умолчанию представлена погода в Gunungsitoli за последнюю неделю. Архивные данные за месяц целиком и за предыдущие месяцы, начиная с января 2011 года, Вы можете получить, выбрав интересующий диапазон дат из раскрывающегося списка и нажав кнопку "Ввод!".


*Определитесь, кто Вы:
робот инопланетянин человек

Внимание! Время в таблицах - всемирное. Для получения местного времени необходимо прибавить поправку, которая в Gunungsitoli равна 7 ч.

Смотрите также архив погоды в соседних городах и на ближайших метеорологических станциях:

Погода в Sibolga (Индонезия) (139 км)
Погода в Medan Polonia Int Airport (Индонезия) (258 км)
Погода в Belawan (Индонезия) (282 км)
Погода в Meulaboh (Индонезия) (349 км)
Погода в Padang (Индонезия) (402 км)
Погода в Lhokseumawe (Индонезия) (418 км)
Погода в Pekanbaru (Индонезия) (440 км)
Погода в Sitiawan (Малайзия) (456 км)
Погода в Kuala Lumpur (Малайзия) (471 км)
Погода в Kuala Lumpur Int Airport (Малайзия) (472 км)

Пояснения к столбцам:

Ветер - указаны скорость ветра в м/с - средняя за 10 мин, порывы в срок и между сроками (в фигурных скобках) и направление, откуда дует ветер: С - северный, СВ - северо-восточный, В - восточный, ЮВ - юго-восточный, Ю - южный, ЮЗ - юго-западный, З - западный, СЗ - северо-западный.
Видимость - горизонтальная дальность видимости в метрах или километрах. При видимости от 1 до 10 км при отсутствии осадков обычно наблюдается дымка, при ухудшении видимости до 1 км и менее - туман. В сухую погоду видимость может ухудшаться дымом, пылью или мглою.
Явления - указаны атмосферные явления, наблюдавшиеся в срок или в последний час перед сроком; фигурными скобками обозначены явления, наблюдавшиеся между сроками (за 1-3 часа до срока); квадратными скобками обозначены град или гололедные отложения с указанием их диаметра в мм.
Облачность - указаны через наклонную черту общая и нижняя облачность в баллах и высота нижней границы облаков в метрах; квадратными скобками обозначены формы облаков: Ci - перистые, Cs - перисто-слоистые, Cc - перисто-кучевые, Ac - высококучевые, As - высокослоистые, Sc - слоисто-кучевые, Ns - слоисто-дождевые, Cu - кучевые, Cb - кучево-дождевые. Подробнее классификацию облаков см. в Атласе облаков (PDF).
T - Температура воздуха - температура, измеренная на высоте 2 м над землей.
Td - Температура точки росы - температура, при понижении до которой содержащийся в воздухе водяной пар достигнет насыщения.
f - Относительная влажность воздуха - влажноcть воздуха, измеренная на высоте 2 м над землей.
Te - Эффективная температура - температура, которую ощущает одетый по сезону человек в тени. Характеристика душности погоды. При расчете учитывается влияние влажности воздуха и скорости ветра на теплоощущения человека.
Tes - Эффективная температура на солнце - температура, которую ощущает человек, с поправкой на солнечный нагрев. Характеристика знойности погоды. Зависит от высоты солнца над горизонтом, облачности и скорости ветра. Ночью, в пасмурную погоду, а также при ветре 12 м/с и более поправка равна нулю.
P - Атмосферное давление - приведенное к уровню моря атмосферное давление.
Po - Атмосферное давление - измеренное на уровне метеостанции атмосферное давление.
Tmin - Минимальная температура - минимум температуры воздуха на высоте 2 м над землей.
Tmax - Максимальная температура - максимум температуры воздуха на высоте 2 м над землей.
R - Количество осадков - Количество выпавших осадков за период времени, мм. При наведении курсора мыши на число - период времени, за который выпало указанное количество осадков.
R24 - Количество осадков - Количество выпавших осадков за 24 часа, мм.
S - Снежный покров - Высота снежного покрова, см. При наведении курсора мыши на число - состояние снежного покрова и степень покрытия местности в баллах.